Track STARLINK-1798 now! 10-day predictions STARLINK-1798 is classified as:
1 46779U 20074AS 21021.83334491 -.01094530 00000-0 -15485-1 0 9995 2 46779 53.0544 83.6885 0000955 39.6510 174.7936 15.58553409 14194